Home > Time Zones > World Clock > Weather > France > Lyon > Past weeks

Flag for France Weather past 2 weeks in Lyon, France

Now
63 °F

Clear.


Feels Like: 63 °F
Forecast: 55 / 67 °F
Wind: No wind

Location: Lyon / Bron

Current Time: Sep 21, 2014 at 5:11:35 AM

Latest Report: Sep 21, 2014 at 4:30 AM


Visibility: N/A

Pressure: 30.07 "Hg

Humidity: 88%

Dew point: 59 °F

Location of LyonLocation

Historic Weather in Lyon — Graph

°F

Lyon temperature yesterday

Maximum temperature yesterday: 81 °F (at 3:30 PM)
Minimum temperature yesterday: 61 °F (at 6:30 AM)
Average temperature yesterday: 69 °F

Past Weeks' High & Low Weather Summary

 TemperatureHumidityPressure
High86 °F (Sep 7, 4:30 PM)100% (Sep 10, 5:30 AM)30.09 "Hg (Sep 10, 5:30 AM)
Low54 °F (Sep 14, 5:30 AM)35% (Sep 17, 4:00 PM)29.80 "Hg (Sep 17, 2:00 PM)
Average69 °F69%29.96 "Hg
* Reported Sep 6 4:00 AM — Sep 21 4:00 AM, Lyon, Weather by CustomWeather, © 2014

Note: Actual official high and low records may vary slightly from our data, if they occured in-between our weather recording intervals... More about our weather records

Advertising

Lyon weather history for previous 24 hours

 ConditionsComfort  
Time TempWeatherWind HumidityBarometerVisibility
4:00 AM
Sep 21
61 °FClear.No wind88%30.07 "HgN/A
3:30 AM63 °FClear.3 mph83%30.07 "HgN/A
3:00 AM63 °FClear.No wind83%30.04 "HgN/A
2:30 AM64 °FClear.2 mph78%30.04 "HgN/A
2:00 AM66 °FClear.2 mph73%30.07 "HgN/A
1:30 AM66 °FClear.1 mph78%30.07 "HgN/A
1:00 AM68 °FClear.5 mph73%30.04 "HgN/A
12:30 AM68 °FMild.5 mph73%30.07 "HgN/A
12:00 AM68 °FClear.5 mph73%30.07 "HgN/A
11:30 PM
Sep 20
70 °FClear.6 mph64%30.07 "HgN/A
11:00 PM70 °FMostly cloudy.5 mph69%30.07 "HgN/A
10:30 PM70 °FClear.3 mph73%30.04 "HgN/A
10:00 PM70 °FClear.2 mph73%30.04 "HgN/A
9:30 PM70 °FClear.5 mph73%30.04 "HgN/A
9:00 PM70 °FClear.1 mph73%30.04 "HgN/A
8:30 PM72 °FClear.5 mph69%30.04 "HgN/A
8:00 PM73 °FClear.3 mph69%30.01 "Hg5 mi
7:30 PM73 °FClear.3 mph69%30.01 "HgN/A
3:30 PM81 °FClear.3 mph51%30.01 "HgN/A
3:00 PM79 °FClear.3 mph51%30.01 "HgN/A
2:30 PM79 °FClear.6 mph54%30.04 "HgN/A
2:00 PM77 °FClear.6 mph57%30.04 "HgN/A
1:30 PM77 °FClear.6 mph57%30.04 "HgN/A
1:00 PM75 °FClear.6 mph61%30.04 "HgN/A
12:30 PM75 °FClear.5 mph65%30.04 "HgN/A
12:00 PM73 °FClear.6 mph65%30.04 "HgN/A
11:30 AM72 °FClear.3 mph69%30.04 "HgN/A
11:00 AM70 °FClear.5 mph69%30.04 "HgN/A
10:30 AM68 °FPassing clouds.6 mph73%30.04 "HgN/A
10:00 AM66 °FClear.7 mph83%30.04 "HgN/A
9:30 AM66 °FClear.5 mph78%30.01 "HgN/A
9:00 AM64 °FClear.3 mph83%30.01 "HgN/A
8:30 AM63 °FClear.2 mph88%30.01 "HgN/A
8:00 AM61 °FClear.3 mph88%30.01 "HgN/A
7:30 AM61 °FClear.3 mph88%29.98 "HgN/A
7:00 AM61 °FClear.3 mph88%29.98 "HgN/A
6:30 AM61 °FClear.5 mph88%29.98 "HgN/A
6:00 AM63 °FClear.3 mph83%29.98 "HgN/A
5:30 AM63 °FClear.3 mph83%29.98 "HgN/A
Weather by CustomWeather, © 2014

See weather overviewHow to use our weather pages